CZ-6A DEB

Satellite information

Favourite Embed

Satellite Type and Status

DEBRISDECAYED

Key statistics

Satellite CZ-6A DEB at a glance.

Uptime

1054

Days in orbit

Revolutions

≈ 15.6

Per day

Orbit

SSO

Sun Synchronous Orbit

Inclination

99.0

Latest

Satellite identification and parameters

Extended collection of information and parameters for CZ-6A DEB.

Object identification

Identified? True

Debris? True

Object name: CZ-6A DEB

International designator: 2022-151CW

Object number (NORAD): 54351

Object ID (CCSDS): 54351

Country: PEOPLES REPUBLIC OF CHINA (PRC)

Current information (Y/N): Y

RCS size: SMALL

Orbital parameters

Decay date: Sept. 30, 2025

Period: 92.461 minutes

Inclination: 99.0192 deg

SMA: 6773.294 km

Apoapsis: 412.865 km

Periapsis: 377.452 km

RAAN: 329.6669 deg

Eccentricy: 0.0026142

Argument of periapsis: 237.8532 deg

Mean anomaly: 122.0182 deg

Mean motion: 15.5740985 rev/day

Mean motion (dot): 0.05928344 rev/day2

B* drag term: 0.067761809 1/REarth

Two-line elements (TLE)

Creation date: Sept. 29, 2025, 3:46 a.m.

Reference frame: TEME

Reference center: EARTH

Epoch: Sept. 28, 2025, 4:35 p.m. UTC

TLE line 0: 0 CZ-6A DEB

TLE line 1: 1 54351U 22151CW 25271.69144235 .05928344 00000-0 67762-1 0 9994

TLE line 2: 2 54351 99.0192 329.6669 0026142 237.8532 122.0182 15.57409850149651

Live tracking on map

Satellite CZ-6A DEB has decayed and is no longer in orbit. No tracking available.

In-orbit conjunctions

Satellite CZ-6A DEB has decayed and is no longer in orbit. No conjunctions available.

Associated space launch

Chinese satellite reported for atmospheric/ocean/environmental/spatial parameter research purposes, details TBD.

CZ-6A DEB was lifted into orbit during the mission ‘Long March 6A | Yunhai 3’, on board a Long March 6A space rocket.

The launch took place on Nov. 11, 2022, 10:52 p.m. from Launch Complex 9A.

For more information about the launch, click the button.

Launch to space Long March 6A | Yunhai 3
Long March 6A | Yunhai 3

Agency: N/A

Status: Launch Successful

Launch date: Nov. 11, 2022, 10:52 p.m. UTC

Rocket: Long March 6A

Launch pad: Launch Complex 9A

Location: Taiyuan Satellite Launch Center, People's Republic of China

...

Latest news about this satellite

There are no fresh news available about this satellite. Check back as we update our databases every day.


Newsletter sign-up

Weekly statistics, charts and insights to help you stay on top of the space industry.